Location: Marcé
(47.5801°N, 0.3280°W)
Time: 10:15:58
(UTC+02:00)

deb Agena D - Visible Passes

Search period start: 26 June 2022 00:00
Search period end: 06 July 2022 00:00
Orbit: 858 x 966 km, 99.0° (Epoch: 24 June)

Date Brightness Start Highest point End Pass type
(mag) Time Alt. Az. Time Alt. Az. Time Alt. Az.
26 Jun ? 01:23:30 10° N 01:28:56 41° WNW 01:34:11 11° SW visible
26 Jun ? 23:47:39 10° NNE 23:53:11 41° E 23:57:09 18° SSE visible
27 Jun ? 01:29:44 10° N 01:35:04 38° WNW 01:40:27 10° SW visible
27 Jun ? 23:53:45 10° NNE 23:59:23 45° E 00:03:24 19° SSE visible
28 Jun ? 01:35:58 10° N 01:41:11 34° WNW 01:46:28 10° SW visible
28 Jun ? 23:59:51 10° NNE 00:05:35 51° E 00:09:39 20° SSE visible
29 Jun ? 01:42:12 10° N 01:47:17 31° WNW 01:52:26 10° WSW visible
30 Jun ? 00:05:57 10° NNE 00:11:46 56° E 00:15:54 20° S visible
30 Jun ? 01:48:28 10° N 01:53:23 29° WNW 01:58:23 10° WSW visible
01 Jul ? 00:12:05 10° NNE 00:17:57 63° ESE 00:22:10 20° S visible
01 Jul ? 01:54:43 10° N 01:59:29 26° WNW 02:04:18 10° WSW visible
01 Jul ? 22:39:18 10° ENE 22:41:13 11° E 22:43:06 10° ESE visible
02 Jul ? 00:18:13 10° NNE 00:24:09 70° ESE 00:28:23 20° S visible
02 Jul ? 02:01:00 10° N 02:05:34 24° WNW 02:10:13 10° WSW visible
02 Jul ? 22:44:46 10° ENE 22:47:29 13° E 22:50:11 10° ESE visible
03 Jul ? 00:24:20 10° NNE 00:30:19 77° ESE 00:34:38 20° S visible
03 Jul ? 02:07:16 10° N 02:11:39 22° WNW 02:16:05 10° WSW visible
03 Jul ? 22:50:28 10° NE 22:53:44 15° E 22:57:01 10° ESE visible
04 Jul ? 00:30:30 10° NNE 00:36:28 85° ESE 00:40:52 20° SSW visible
04 Jul ? 02:13:35 10° N 02:17:43 20° NW 02:21:55 10° W visible
04 Jul ? 22:56:15 10° NE 22:59:59 17° E 23:03:44 10° SE visible
05 Jul ? 00:36:38 10° NNE 00:42:38 87° WNW 00:47:06 19° SSW visible
05 Jul ? 02:19:54 10° NNW 02:23:47 18° NW 02:27:43 10° W visible
05 Jul ? 23:02:07 10° NE 23:06:14 19° E 23:10:01 11° SE visible
